When you browse on this site, cookies collect data to enhance your experience and personalize the content and advertising you see.
Visit our Privacy Policy to learn more. By continuing to use the site, you agree to this use of cookies and data.
  • In Hungary
  • List of Countries
  • For 7 days
  • Water Temperature
  • Satellite Maps
  • Weather Map
  • News
  • Weather Widgets
  • user-avatar
    Login

    Hourly Weather Sébaco

    Today, 18 November, Sunday

    Time Temperature Precipitation Wind Pressure Humidity
    00:00 +24°C° 0 mm 3 mps 717 mmHg 87%
    01:00 +22°C° 0 mm 3 mps 717 mmHg 88%
    02:00 +23°C° 0 mm 2 mps 717 mmHg 88%
    03:00 +23°C° 0 mm 2 mps 717 mmHg 88%
    04:00 +23°C° 0 mm 2 mps 717 mmHg 89%
    05:00 +23°C° 0 mm 2 mps 717 mmHg 89%
    06:00 +23°C° 0 mm 2 mps 718 mmHg 89%
    07:00 +25°C° 0 mm 3 mps 718 mmHg 82%
    08:00 +26°C° 0 mm 4 mps 718 mmHg 75%
    09:00 +28°C° 0 mm 4 mps 719 mmHg 68%
    10:00 +29°C° 0 mm 5 mps 718 mmHg 65%
    11:00 +30°C° 0 mm 5 mps 718 mmHg 63%
    12:00 +32°C° 0 mm 5 mps 718 mmHg 60%
    13:00 +32°C° 0 mm 5 mps 717 mmHg 61%
    14:00 +32°C° 0 mm 5 mps 717 mmHg 61%
    15:00 +32°C° 0 mm 5 mps 716 mmHg 62%
    16:00 +29°C° 0 mm 4 mps 716 mmHg 68%
    17:00 +27°C° 0 mm 3 mps 716 mmHg 75%
    18:00 +26°C° 0 mm 3 mps 716 mmHg 81%
    19:00 +25°C° 0 mm 2 mps 717 mmHg 83%
    20:00 +24°C° 0 mm 2 mps 717 mmHg 86%
    21:00 +24°C° 0 mm 2 mps 718 mmHg 88%
    22:00 +24°C° 0 mm 2 mps 718 mmHg 89%
    23:00 +23°C° 0 mm 2 mps 718 mmHg 89%

    Tomorrow, 19 November, Monday

    Time Temperature Precipitation Wind Pressure Humidity
    00:00 +23°C° 0 mm 2 mps 717 mmHg 90%
    01:00 +23°C° 0 mm 2 mps 717 mmHg 90%
    02:00 +23°C° 0 mm 2 mps 717 mmHg 89%
    03:00 +23°C° 0 mm 2 mps 717 mmHg 89%
    04:00 +23°C° 0 mm 2 mps 717 mmHg 89%
    05:00 +23°C° 0 mm 2 mps 717 mmHg 89%
    06:00 +21°C° 0 mm 2 mps 717 mmHg 89%
    07:00 +24°C° 0 mm 3 mps 718 mmHg 82%
    08:00 +26°C° 0 mm 4 mps 718 mmHg 75%
    09:00 +28°C° 0 mm 4 mps 719 mmHg 68%
    10:00 +29°C° 0 mm 5 mps 718 mmHg 65%
    11:00 +30°C° 0 mm 5 mps 718 mmHg 63%
    12:00 +32°C° 0 mm 5 mps 718 mmHg 60%
    13:00 +32°C° 0 mm 5 mps 717 mmHg 60%
    14:00 +32°C° 0 mm 4 mps 717 mmHg 60%
    15:00 +30°C° 0 mm 4 mps 716 mmHg 61%
    16:00 +29°C° 0 mm 4 mps 716 mmHg 67%
    17:00 +27°C° 0 mm 3 mps 716 mmHg 74%
    18:00 +25°C° 0 mm 2 mps 716 mmHg 81%
    19:00 +25°C° 0 mm 2 mps 717 mmHg 83%
    20:00 +24°C° 0 mm 2 mps 718 mmHg 86%
    21:00 +24°C° 0 mm 2 mps 718 mmHg 88%
    22:00 +24°C° 0 mm 2 mps 718 mmHg 89%
    23:00 +23°C° 0 mm 2 mps 718 mmHg 90%

    Day after tomorrow, 20 November, Tuesday

    Time Temperature Precipitation Wind Pressure Humidity
    00:00 +23°C° 0 mm 2 mps 718 mmHg 90%
    01:00 +23°C° 0 mm 2 mps 717 mmHg 90%
    02:00 +23°C° 0 mm 2 mps 717 mmHg 91%
    03:00 +23°C° 0 mm 2 mps 717 mmHg 91%
    04:00 +23°C° 0 mm 2 mps 717 mmHg 91%
    05:00 +23°C° 0 mm 2 mps 717 mmHg 90%
    06:00 +23°C° 0 mm 2 mps 717 mmHg 90%
    07:00 +24°C° 0 mm 3 mps 718 mmHg 84%
    08:00 +26°C° 0 mm 3 mps 719 mmHg 78%
    09:00 +27°C° 0 mm 4 mps 719 mmHg 71%
    10:00 +28°C° 0 mm 4 mps 719 mmHg 68%
    11:00 +29°C° 0 mm 4 mps 718 mmHg 65%
    12:00 +30°C° 0 mm 5 mps 718 mmHg 61%
    13:00 +30°C° 0.1 mm 5 mps 717 mmHg 62%
    14:00 +30°C° 0.1 mm 5 mps 717 mmHg 64%
    15:00 +30°C° 0.1 mm 4 mps 716 mmHg 65%
    16:00 +28°C° 0 mm 4 mps 716 mmHg 71%
    17:00 +27°C° 0 mm 3 mps 717 mmHg 76%
    18:00 +25°C° 0 mm 3 mps 717 mmHg 82%
    19:00 +25°C° 0 mm 3 mps 718 mmHg 84%
    20:00 +24°C° 0 mm 3 mps 718 mmHg 85%
    21:00 +24°C° 0 mm 3 mps 719 mmHg 87%
    22:00 +24°C° 0 mm 2 mps 719 mmHg 87%
    23:00 +24°C° 0 mm 2 mps 719 mmHg 88%

    21 November, Wednesday

    Time Temperature Precipitation Wind Pressure Humidity
    00:00 +23°C° 0 mm 2 mps 719 mmHg 88%
    01:00 +23°C° 0 mm 2 mps 718 mmHg 88%
    02:00 +23°C° 0 mm 2 mps 718 mmHg 87%
    03:00 +23°C° 0 mm 2 mps 717 mmHg 87%
    04:00 +23°C° 0 mm 2 mps 718 mmHg 87%
    05:00 +23°C° 0 mm 2 mps 718 mmHg 87%
    06:00 +23°C° 0 mm 2 mps 718 mmHg 87%
    07:00 +24°C° 0 mm 3 mps 719 mmHg 81%
    08:00 +26°C° 0 mm 4 mps 719 mmHg 75%
    09:00 +27°C° 0 mm 5 mps 720 mmHg 70%
    10:00 +28°C° 0 mm 5 mps 719 mmHg 65%
    11:00 +29°C° 0 mm 5 mps 719 mmHg 59%
    12:00 +30°C° 0 mm 5 mps 718 mmHg 54%
    13:00 +30°C° 0 mm 5 mps 718 mmHg 55%
    14:00 +30°C° 0 mm 5 mps 717 mmHg 55%
    15:00 +30°C° 0 mm 4 mps 716 mmHg 56%
    16:00 +28°C° 0 mm 4 mps 717 mmHg 61%
    17:00 +27°C° 0 mm 3 mps 717 mmHg 66%
    18:00 +26°C° 0 mm 2 mps 717 mmHg 70%
    19:00 +25°C° 0 mm 2 mps 718 mmHg 73%
    20:00 +25°C° 0 mm 2 mps 718 mmHg 76%
    21:00 +24°C° 0 mm 2 mps 719 mmHg 78%
    22:00 +24°C° 0 mm 2 mps 719 mmHg 81%
    23:00 +23°C° 0 mm 2 mps 719 mmHg 85%

    22 November, Thursday

    Time Temperature Precipitation Wind Pressure Humidity
    00:00 +21°C° 0 mm 2 mps 718 mmHg 88%
    01:00 +21°C° 0 mm 2 mps 718 mmHg 89%
    02:00 +21°C° 0 mm 2 mps 717 mmHg 90%
    03:00 +20°C° 0 mm 2 mps 717 mmHg 91%
    04:00 +20°C° 0 mm 2 mps 717 mmHg 91%
    05:00 +20°C° 0 mm 2 mps 717 mmHg 90%
    06:00 +20°C° 0 mm 2 mps 718 mmHg 90%
    07:00 +24°C° 0 mm 3 mps 718 mmHg 81%
    08:00 +26°C° 0 mm 3 mps 719 mmHg 72%
    09:00 +28°C° 0 mm 4 mps 719 mmHg 63%
    10:00 +29°C° 0 mm 4 mps 719 mmHg 59%
    11:00 +30°C° 0 mm 4 mps 718 mmHg 55%
    12:00 +32°C° 0 mm 5 mps 718 mmHg 51%
    13:00 +32°C° 0 mm 4 mps 717 mmHg 52%
    14:00 +32°C° 0 mm 4 mps 716 mmHg 53%
    15:00 +32°C° 0 mm 4 mps 716 mmHg 54%
    16:00 +29°C° 0 mm 3 mps 716 mmHg 61%
    17:00 +27°C° 0 mm 3 mps 716 mmHg 68%
    18:00 +26°C° 0 mm 2 mps 717 mmHg 75%
    19:00 +25°C° 0 mm 2 mps 717 mmHg 78%
    20:00 +25°C° 0 mm 2 mps 718 mmHg 81%
    21:00 +24°C° 0 mm 2 mps 718 mmHg 84%
    22:00 +24°C° 0 mm 2 mps 718 mmHg 86%
    23:00 +23°C° 0 mm 2 mps 718 mmHg 88%

    23 November, Friday

    Time Temperature Precipitation Wind Pressure Humidity
    00:00 +23°C° 0 mm 2 mps 717 mmHg 89%
    01:00 +23°C° 0 mm 2 mps 717 mmHg 90%
    02:00 +21°C° 0 mm 2 mps 717 mmHg 91%
    03:00 +21°C° 0 mm 2 mps 716 mmHg 91%
    04:00 +21°C° 0 mm 2 mps 717 mmHg 91%
    05:00 +21°C° 0 mm 2 mps 717 mmHg 90%
    06:00 +20°C° 0 mm 2 mps 717 mmHg 90%
    07:00 +24°C° 0 mm 2 mps 718 mmHg 80%
    08:00 +26°C° 0 mm 3 mps 718 mmHg 70%
    09:00 +28°C° 0 mm 3 mps 719 mmHg 60%
    10:00 +29°C° 0 mm 3 mps 718 mmHg 56%
    11:00 +30°C° 0 mm 4 mps 717 mmHg 53%
    12:00 +32°C° 0 mm 4 mps 717 mmHg 50%
    13:00 +32°C° 0 mm 4 mps 716 mmHg 51%
    14:00 +32°C° 0 mm 4 mps 716 mmHg 52%
    15:00 +32°C° 0 mm 4 mps 715 mmHg 53%
    16:00 +29°C° 0 mm 3 mps 715 mmHg 61%
    17:00 +27°C° 0 mm 3 mps 716 mmHg 69%
    18:00 +25°C° 0 mm 2 mps 716 mmHg 76%
    19:00 +25°C° 0 mm 2 mps 717 mmHg 80%
    20:00 +24°C° 0 mm 2 mps 717 mmHg 84%
    21:00 +23°C° 0 mm 2 mps 718 mmHg 88%
    22:00 +23°C° 0 mm 2 mps 717 mmHg 89%
    23:00 +23°C° 0 mm 2 mps 717 mmHg 91%
    Show more